Weather History for Doha, Qatar

Change the Weather History Date:

Sunday, March 16, 2014

  Actual Average Record
Temperature  
Mean Temperature 70 °F -  
Max Temperature 75 °F 85 °F 88 °F (2013)
Min Temperature 64 °F 66 °F 59 °F (1999)
Cooling Degree Days 4    
Growing Degree Days 20 (Base 50)    
Moisture  
Dew Point 44 °F    
Average Humidity 39    
Maximum Humidity 56    
Minimum Humidity 21    
Precipitation  
Precipitation 0.00 in 0.02 in - ()
Sea Level Pressure  
Sea Level Pressure 30.14 in    
Wind  
Wind Speed 9 mph ()    
Max Wind Speed 15 mph    
Max Gust Speed 26 mph    
Visibility 5.2 miles    
Events      
Averages and records for this station are not official NWS values.
T = Trace of Precipitation, MM = Missing Value Source: Averaged Metar Reports

Daily Weather History Graph

Daily Weather History Graph

Search for Another Location

Airport:

Trip Planner

Search our weather history database for the weather conditions in past years. The results will help you decide how hot, cold, wet, or windy it might be!

Date:

Astronomy

Mar. 16, 2014 Rise Set
Actual Time 5:42 AM AST 5:42 PM AST
Civil Twilight 5:19 AM AST 6:05 PM AST
Nautical Twilight 4:52 AM AST 6:32 PM AST
Astronomical Twilight 4:26 AM AST 6:59 PM AST
Moon 5:34 PM AST (3/16) 5:13 AM AST (3/16)
Length of Visible Light 12h 46m
Length of Day
12h 00m
Full, 100% of the Moon is Illuminated
Mar 16
Full
Mar 16
Full
Mar 24
Last Quarter
Mar 30
New
Apr 7
First Quarter

Hourly Weather History & Observations

Time (AST) Temp. Dew Point Humidity Pressure Visibility Wind Dir Wind Speed Gust Speed Precip Events Conditions
12:00 AM 68 °F 53 °F 47% 30.08 in 6 mi NW 6.9 mph - -   Widespread Dust
12:00 AM 68.0 °F 51.8 °F 56% 30.06 in 5.6 mi NW 6.9 mph - N/A   Unknown
1:00 AM 68.0 °F 50.0 °F 52% 30.06 in 3.1 mi NW 9.2 mph - N/A   Unknown
2:00 AM 68.0 °F 44.6 °F 43% 30.06 in 2.2 mi NW 8.1 mph - N/A   Unknown
3:00 AM 68.0 °F 37.4 °F 33% 30.06 in 1.2 mi WNW 12.7 mph - N/A   Unknown
4:00 AM 66.2 °F 35.6 °F 32% 30.06 in 0.8 mi NW 15.0 mph - N/A   Unknown
5:00 AM 66.2 °F 39.2 °F 37% 30.09 in 0.9 mi NW 13.8 mph - N/A   Unknown
6:00 AM 64 °F 42 °F 34% 30.13 in 2 mi NW 9.2 mph - -   Widespread Dust
6:00 AM 64.4 °F 42.8 °F 45% 30.12 in 2.5 mi NW 9.2 mph - N/A   Unknown
7:00 AM 64.4 °F 42.8 °F 45% 30.12 in 2.2 mi WNW 12.7 mph - N/A   Unknown
8:00 AM 66.2 °F 42.8 °F 43% 30.15 in 4.3 mi NW 10.4 mph - N/A   Unknown
9:00 AM 68.0 °F 44.6 °F 43% 30.18 in - NW 10.4 mph - N/A   Clear
10:00 AM 69.8 °F 46.4 °F 43% 30.18 in - NNW 11.5 mph - N/A   Clear
11:00 AM 71.6 °F 46.4 °F 41% 30.18 in 6.2 mi NW 11.5 mph - N/A   Partly Cloudy
12:00 PM 73 °F 46 °F 27% 30.17 in 10 mi NW 12.7 mph - -   Scattered Clouds
12:00 PM 73.4 °F 46.4 °F 38% 30.15 in 6.2 mi NW 12.7 mph 26.5 mph N/A   Partly Cloudy
1:00 PM 75.2 °F 44.6 °F 34% 30.15 in 6.2 mi NNW 12.7 mph 24.2 mph N/A   Partly Cloudy
1:30 PM 73.4 °F 44.6 °F 36% 30.12 in 6.2 mi NW 10.4 mph 23.0 mph N/A   Partly Cloudy
2:00 PM 75.2 °F 42.8 °F 31% 30.12 in 6.2 mi WNW 13.8 mph - N/A   Partly Cloudy
2:30 PM 73.4 °F 44.6 °F 36% 30.12 in 6.2 mi NW 8.1 mph 20.7 mph N/A   Partly Cloudy
3:00 PM 74 °F 42 °F 21% 30.14 in 10 mi NW 12.7 mph - -   Scattered Clouds
3:00 PM 73.4 °F 42.8 °F 33% 30.12 in 6.2 mi NW 12.7 mph - N/A   Partly Cloudy
4:00 PM 73.4 °F 37.4 °F 27% 30.12 in - WNW 11.5 mph - N/A   Clear
5:00 PM 73.4 °F 39.2 °F 29% 30.15 in - NNW 12.7 mph - N/A   Clear
6:00 PM 72 °F 41 °F 21% 30.18 in 10 mi NW 11.5 mph - -  
6:00 PM 71.6 °F 41.0 °F 33% 30.15 in - NW 11.5 mph - N/A   Clear
6:30 PM 71.6 °F 42.8 °F 35% 30.15 in - NW 9.2 mph - N/A   Clear
7:00 PM 69.8 °F 44.6 °F 40% 30.18 in - NNW 10.4 mph - N/A   Clear
8:00 PM 69.8 °F 44.6 °F 40% 30.18 in - NNW 11.5 mph - N/A   Clear
9:00 PM 68 °F 47 °F 36% 30.21 in 10 mi NNW 8.1 mph - -  
9:00 PM 68.0 °F 46.4 °F 46% 30.21 in - NNW 8.1 mph - N/A   Clear
9:30 PM 68.0 °F 46.4 °F 46% 30.21 in - NNW 8.1 mph - N/A   Clear
10:00 PM 68.0 °F 48.2 °F 49% 30.18 in - NNW 8.1 mph - N/A   Clear
10:30 PM 66.2 °F 48.2 °F 52% 30.18 in - NNW 8.1 mph - N/A   Clear
11:00 PM 66.2 °F 48.2 °F 52% 30.18 in - NW 8.1 mph - N/A   Clear
11:30 PM 66.2 °F 48.2 °F 52% 30.18 in - NW 6.9 mph - N/A   Clear